Regional Weather Roundup
Issued by NWS State College, PA

Home | Current Version | Previous Version | Graphics & Text | Print | Product List | Glossary Off
Versions: 1 2 3 4 5 6 7 8 9 10 11 12 13 14 15 16 17 18 19 20 21 22 23 24 25 26 27 28 29 30 31 32 33 34 35 36 37 38 39 40 41 42 43 44 45 46 47 48 49 50

715
ASUS41 KCTP 160203
RWRCTP

REGIONAL WEATHER ROUNDUP
NATIONAL WEATHER SERVICE STATE COLLEGE PA
900 PM EST MON JAN 15 2018

Note: "fair" indicates few or no clouds below 12,000 feet with no
significant weather and/or obstructions to visibility.

* = STATION THAT DOES NOT REPORT PRECIPITATION /E.G. RAIN...SNOW...ETC/
    THUNDER OR FOG.

PAZ002>004-007>009-013>016-020>023-029>032-160300-
WESTERN PENNSYLVANIA

CITY           SKY/WX    TMP DP  RH WIND       PRES   REMARKS
ERIE           CLOUDY    24  18  77 S15       30.29S WCI  11
MEADVILLE      LGT SNOW  21  19  92 VRB5      30.26R FOG     WCI  15
FRANKLIN*      LGT SNOW  20  18  92 SE9       30.27S FOG     WCI   9
NEW CASTLE     LGT SNOW  25  24  96 VRB5      30.28F FOG
BEAVER COUNTY  NOT AVBL
BUTLER*        FLURRIES  23  21  92 E6        30.28F
PITTSBURGH INT CLOUDY    24  24 100 SE5       30.26F
PITTSBURGH     CLOUDY    25  23  92 SE8       30.26F
INDIANA*       MOCLDY    23  19  86 SE8G15    30.34F FOG     WCI  14
LATROBE        MOCLDY    25  21  86 SE6       30.31F
WASHINGTON CO* CLOUDY    24  23  96 CALM      30.30S
$$

PAZ004>006-010>012-017>019-024>028-033>037-041-042-045-046-049>053-160300-
CENTRAL PENNSYLVANIA

CITY           SKY/WX    TMP DP  RH WIND       PRES   REMARKS
BRADFORD       LGT SNOW  16  13  88 SE9       30.24F FOG     WCI   4
DUBOIS         LGT SNOW  16  12  84 SE8       30.27S VSB 1   WCI   5
CLEARFIELD     LGT SNOW  18  15  88 N3        30.34S FOG
JOHNSTOWN      LGT SNOW  17  13  84 S12       30.27F FOG     WCI   4
ALTOONA        CLOUDY    23  13  65 CALM      30.37R
STATE COLLEGE  CLOUDY    21  14  73 CALM      30.38R
WILLIAMSPORT   CLOUDY    22  15  75 NE7       30.44F WCI  13
SELINSGROVE    CLOUDY    22  16  78 CALM      30.46F
FT INDIANTOWN  CLOUDY    24  17  73 CALM      30.46F
CAPITAL CITY   CLOUDY    26  16  65 CALM      30.47F
HARRISBURG     CLOUDY    26  16  65 CALM      30.47F
YORK           CLOUDY    25  18  74 SE3       30.46F
$$

PAZ038>040-043-044-047-048-054-055-060>062-067>071-160300-
EASTERN PENNSYLVANIA

CITY           SKY/WX    TMP DP  RH WIND       PRES   REMARKS
SCRANTON       MOCLDY    23  15  71 VRB5      30.41F
MOUNT POCONO   FAIR      16  13  88 E5        30.36F WCI   9
ALLENTOWN      CLOUDY    29  16  58 E7        30.48S
QUAKERTOWN*    CLOUDY    27  19  74 MISG      30.48S
READING        CLOUDY    26  18  71 W6        30.49R
LANCASTER      CLOUDY    27  19  72 NE3       30.47S
COATESVILLE    CLOUDY    28  25  86 E6        30.47R
POTTSTOWN      CLOUDY    28  20  71 CALM      30.51R
BLUE BELL      CLOUDY    28  23  80 E5        30.50S
DOYLESTOWN     CLOUDY    27  19  72 CALM      30.47F
WILLOW GROVE   NOT AVBL
NORTH PHILA    CLOUDY    30  22  72 NE10      30.51F
PHILADELPHIA   CLOUDY    30  23  75 NE5       30.52R
$$




USA.gov is the U.S. government's official web portal to all federal, state and local government web resources and services.